| time (UTC) | temp F | wind direction | speed MPH | gust MPH | rain 1hr in | rain 24hr in | rain mn in | humidity % | barometer mb |
| 20260505163510 | 59 | 294 | 3.0 | 8.0 | 0.00 | 0.00 | 0.00 | 48 | 1015.8 |
| 20260505163448 | 59 | 294 | 3.0 | 8.0 | 0.00 | 0.00 | 0.00 | 48 | 1017.4 |
| 20260505163026 | 59 | 270 | 2.0 | 7.0 | 0.00 | 0.00 | 0.00 | 48 | 1015.7 |
| 20260505162943 | 59 | 275 | 3.0 | 7.0 | 0.00 | 0.00 | 0.00 | 48 | 1017.4 |
| 20260505162511 | 59 | 239 | 2.0 | 7.0 | 0.00 | 0.00 | 0.00 | 47 | 1015.7 |
| 20260505162436 | 59 | 298 | 3.0 | 7.0 | 0.00 | 0.00 | 0.00 | 47 | 1017.3 |
| 20260505162010 | 58 | 242 | 2.0 | 7.0 | 0.00 | 0.00 | 0.00 | 47 | 1015.8 |
| 20260505161930 | 59 | 241 | 3.0 | 7.0 | 0.00 | 0.00 | 0.00 | 48 | 1017.3 |
| 20260505161524 | 58 | 276 | 2.0 | 7.0 | 0.00 | 0.00 | 0.00 | 49 | 1015.7 |
| 20260505161424 | 58 | 300 | 3.0 | 7.0 | 0.00 | 0.00 | 0.00 | 49 | 1017.4 |
| 20260505161008 | 58 | 296 | 3.0 | 7.0 | 0.00 | 0.00 | 0.00 | 48 | 1015.7 |
| 20260505160918 | 59 | 294 | 2.0 | 7.0 | 0.00 | 0.00 | 0.00 | 48 | 1017.3 |
| 20260505160509 | 58 | 242 | 2.0 | 7.0 | 0.00 | 0.00 | 0.00 | 48 | 1015.7 |
| 20260505160412 | 59 | 256 | 1.0 | 3.0 | 0.00 | 0.00 | 0.00 | 49 | 1017.2 |
| 20260505153336 | 57 | 296 | 2.0 | 5.0 | 0.00 | 0.00 | 0.00 | 48 | 1017.2 |
| 20260505153004 | 56 | 303 | 1.0 | 5.0 | 0.00 | 0.00 | 0.00 | 48 | 1015.6 |
| 20260505152830 | 56 | 283 | 2.0 | 5.0 | 0.00 | 0.00 | 0.00 | 50 | 1017.1 |
| 20260505152503 | 56 | 311 | 2.0 | 5.0 | 0.00 | 0.00 | 0.00 | 50 | 1015.7 |
| 20260505152324 | 56 | 280 | 2.0 | 5.0 | 0.00 | 0.00 | 0.00 | 49 | 1017.1 |
| 20260505152006 | 55 | 318 | 1.0 | 5.0 | 0.00 | 0.00 | 0.00 | 51 | 1015.7 |
| 20260505151823 | 55 | 318 | 3.0 | 6.0 | 0.00 | 0.00 | 0.00 | 52 | 1017.1 |
| 20260505151511 | 55 | 303 | 2.0 | 6.0 | 0.00 | 0.00 | 0.00 | 52 | 1015.6 |
| 20260505151320 | 55 | 303 | 3.0 | 6.0 | 0.00 | 0.00 | 0.00 | 53 | 1016.9 |
| 20260505151004 | 54 | 297 | 3.0 | 6.0 | 0.00 | 0.00 | 0.00 | 54 | 1015.7 |
| 20260505150820 | 54 | 281 | 2.0 | 6.0 | 0.00 | 0.00 | 0.00 | 57 | 1017.1 |
| 20260505150503 | 52 | 275 | 1.0 | 5.0 | 0.00 | 0.00 | 0.00 | 59 | 1015.7 |
| 20260505150320 | 51 | 294 | 2.0 | 5.0 | 0.00 | 0.00 | 0.00 | 62 | 1016.9 |
| 20260505140535 | 40 | 298 | 0.0 | 0.0 | 0.00 | 0.00 | 0.00 | 89 | 1016.6 |
| 20260505140506 | 40 | 298 | 0.0 | 0.0 | 0.00 | 0.00 | 0.00 | 89 | 1015.2 |
| 20260505130310 | 39 | 295 | 0.0 | 0.0 | 0.00 | 0.00 | 0.00 | 86 | 1016.3 |
| 20260505125006 | 38 | 295 | 0.0 | 0.0 | 0.00 | 0.00 | 0.00 | 84 | 1014.7 |
| 20260505124810 | 39 | 295 | 0.0 | 0.0 | 0.00 | 0.00 | 0.00 | 84 | 1016.3 |
| 20260505124522 | 38 | 295 | 0.0 | 0.0 | 0.00 | 0.00 | 0.00 | 84 | 1014.8 |
| 20260505124309 | 39 | 295 | 0.0 | 0.0 | 0.00 | 0.00 | 0.00 | 84 | 1016.3 |
| 20260505124002 | 39 | 295 | 0.0 | 0.0 | 0.00 | 0.00 | 0.00 | 84 | 1014.7 |
| 20260505123806 | 39 | 295 | 0.0 | 0.0 | 0.00 | 0.00 | 0.00 | 85 | 1016.3 |
| 20260505123505 | 39 | 295 | 0.0 | 0.0 | 0.00 | 0.00 | 0.00 | 83 | 1014.7 |
| 20260505123306 | 39 | 295 | 0.0 | 0.0 | 0.00 | 0.00 | 0.00 | 84 | 1016.3 |
| 20260505123027 | 39 | 295 | 0.0 | 0.0 | 0.00 | 0.00 | 0.00 | 83 | 1014.7 |
| 20260505122804 | 39 | 295 | 0.0 | 0.0 | 0.00 | 0.00 | 0.00 | 84 | 1016.3 |
| 20260505122502 | 39 | 295 | 0.0 | 0.0 | 0.00 | 0.00 | 0.00 | 83 | 1014.7 |
| 20260505122305 | 39 | 295 | 0.0 | 0.0 | 0.00 | 0.00 | 0.00 | 83 | 1016.1 |
| 20260505122003 | 39 | 295 | 0.0 | 0.0 | 0.00 | 0.00 | 0.00 | 84 | 1014.7 |
| 20260505121804 | 39 | 295 | 0.0 | 0.0 | 0.00 | 0.00 | 0.00 | 84 | 1016.1 |
| 20260505121532 | 39 | 295 | 0.0 | 0.0 | 0.00 | 0.00 | 0.00 | 83 | 1014.7 |
| 20260505121302 | 39 | 295 | 0.0 | 0.0 | 0.00 | 0.00 | 0.00 | 83 | 1016.1 |
| 20260505121009 | 39 | 295 | 0.0 | 0.0 | 0.00 | 0.00 | 0.00 | 83 | 1014.6 |
| 20260505120800 | 39 | 295 | 0.0 | 0.0 | 0.00 | 0.00 | 0.00 | 83 | 1016.0 |
| 20260505120505 | 39 | 295 | 0.0 | 0.0 | 0.00 | 0.00 | 0.00 | 82 | 1014.6 |
| 20260505120300 | 39 | 295 | 0.0 | 0.0 | 0.00 | 0.00 | 0.00 | 83 | 1016.0 |
| 20260505120031 | 39 | 295 | 0.0 | 0.0 | 0.00 | 0.00 | 0.00 | 82 | 1014.6 |
| 20260505115800 | 40 | 295 | 0.0 | 0.0 | 0.00 | 0.00 | 0.00 | 82 | 1016.0 |
| 20260505115502 | 39 | 295 | 0.0 | 0.0 | 0.00 | 0.00 | 0.00 | 81 | 1014.7 |
| 20260505115258 | 40 | 295 | 0.0 | 0.0 | 0.00 | 0.00 | 0.00 | 82 | 1016.1 |
| 20260505115020 | 40 | 295 | 0.0 | 0.0 | 0.00 | 0.00 | 0.00 | 82 | 1016.0 |
| 20260505115003 | 39 | 295 | 0.0 | 0.0 | 0.00 | 0.00 | 0.00 | 82 | 1014.6 |
| 20260505114514 | 39 | 295 | 0.0 | 0.0 | 0.00 | 0.00 | 0.00 | 81 | 1014.6 |
| 20260505114257 | 40 | 295 | 0.0 | 0.0 | 0.00 | 0.00 | 0.00 | 82 | 1016.0 |
| 20260505114008 | 39 | 296 | 0.0 | 0.0 | 0.00 | 0.00 | 0.00 | 81 | 1014.6 |
| 20260505113756 | 40 | 296 | 0.0 | 0.0 | 0.00 | 0.00 | 0.00 | 81 | 1016.0 |
| 20260505113503 | 39 | 296 | 0.0 | 0.0 | 0.00 | 0.00 | 0.00 | 80 | 1014.5 |
| 20260505113008 | 40 | 296 | 0.0 | 0.0 | 0.00 | 0.00 | 0.00 | 81 | 1014.6 |
| 20260505112754 | 40 | 296 | 0.0 | 0.0 | 0.00 | 0.00 | 0.00 | 81 | 1015.9 |
| 20260505112516 | 40 | 296 | 0.0 | 0.0 | 0.00 | 0.00 | 0.00 | 80 | 1015.9 |
| 20260505112506 | 40 | 296 | 0.0 | 0.0 | 0.00 | 0.00 | 0.00 | 80 | 1014.6 |
| 20260505112009 | 40 | 296 | 0.0 | 0.0 | 0.00 | 0.00 | 0.00 | 80 | 1014.5 |
| 20260505111748 | 40 | 296 | 0.0 | 0.0 | 0.00 | 0.00 | 0.00 | 81 | 1015.9 |
| 20260505111522 | 40 | 296 | 0.0 | 0.0 | 0.00 | 0.00 | 0.00 | 80 | 1014.5 |
| 20260505111241 | 40 | 296 | 0.0 | 0.0 | 0.00 | 0.00 | 0.00 | 80 | 1015.9 |
| 20260505111004 | 40 | 296 | 0.0 | 0.0 | 0.00 | 0.00 | 0.00 | 79 | 1014.4 |
| 20260505110735 | 41 | 296 | 0.0 | 0.0 | 0.00 | 0.00 | 0.00 | 80 | 1015.9 |
| 20260505110506 | 40 | 296 | 0.0 | 0.0 | 0.00 | 0.00 | 0.00 | 79 | 1014.5 |
| 20260505110229 | 41 | 296 | 0.0 | 0.0 | 0.00 | 0.00 | 0.00 | 79 | 1015.9 |
| 20260505102140 | 42 | 297 | 0.0 | 0.0 | 0.00 | 0.00 | 0.00 | 78 | 1015.8 |
| 20260505102007 | 41 | 297 | 0.0 | 0.0 | 0.00 | 0.00 | 0.00 | 78 | 1014.4 |
| 20260505101633 | 42 | 297 | 0.0 | 0.0 | 0.00 | 0.00 | 0.00 | 78 | 1015.8 |
| 20260505101518 | 41 | 297 | 0.0 | 0.0 | 0.00 | 0.00 | 0.00 | 77 | 1014.4 |
| 20260505101126 | 42 | 297 | 0.0 | 0.0 | 0.00 | 0.00 | 0.00 | 77 | 1015.8 |
| 20260505101010 | 42 | 297 | 0.0 | 0.0 | 0.00 | 0.00 | 0.00 | 77 | 1014.4 |
| 20260505100622 | 42 | 297 | 0.0 | 0.0 | 0.00 | 0.00 | 0.00 | 77 | 1015.8 |
| 20260505100506 | 42 | 297 | 0.0 | 0.0 | 0.00 | 0.00 | 0.00 | 77 | 1014.4 |
| 20260505100115 | 42 | 297 | 0.0 | 0.0 | 0.00 | 0.00 | 0.00 | 77 | 1015.8 |
| 20260505100012 | 42 | 297 | 0.0 | 0.0 | 0.00 | 0.00 | 0.00 | 76 | 1014.3 |
| 20260505095608 | 42 | 297 | 0.0 | 0.0 | 0.00 | 0.00 | 0.00 | 77 | 1015.8 |
| 20260505095506 | 42 | 297 | 0.0 | 0.0 | 0.00 | 0.00 | 0.00 | 76 | 1014.3 |
| 20260505095103 | 42 | 297 | 0.0 | 0.0 | 0.00 | 0.00 | 0.00 | 76 | 1015.7 |
| 20260505095009 | 42 | 297 | 0.0 | 0.0 | 0.00 | 0.00 | 0.00 | 76 | 1014.3 |
| 20260505094557 | 43 | 297 | 0.0 | 0.0 | 0.00 | 0.00 | 0.00 | 76 | 1015.7 |
| 20260505094534 | 42 | 297 | 0.0 | 0.0 | 0.00 | 0.00 | 0.00 | 75 | 1014.3 |
| 20260505094311 | 43 | 297 | 0.0 | 0.0 | 0.00 | 0.00 | 0.00 | 76 | 1015.6 |
| 20260505094005 | 42 | 297 | 0.0 | 0.0 | 0.00 | 0.00 | 0.00 | 75 | 1014.2 |
| 20260505093545 | 43 | 297 | 0.0 | 0.0 | 0.00 | 0.00 | 0.00 | 76 | 1015.6 |
| 20260505093508 | 42 | 297 | 0.0 | 0.0 | 0.00 | 0.00 | 0.00 | 75 | 1014.2 |
| 20260505093304 | 43 | 297 | 0.0 | 0.0 | 0.00 | 0.00 | 0.00 | 76 | 1015.6 |
| 20260505093030 | 43 | 298 | 0.0 | 0.0 | 0.00 | 0.00 | 0.00 | 75 | 1014.3 |
| 20260505092752 | 43 | 298 | 0.0 | 0.0 | 0.00 | 0.00 | 0.00 | 75 | 1015.7 |
| 20260505092511 | 43 | 298 | 0.0 | 0.0 | 0.00 | 0.00 | 0.00 | 74 | 1014.3 |
| 20260505092027 | 43 | 298 | 0.0 | 1.0 | 0.00 | 0.00 | 0.00 | 74 | 1015.7 |
| 20260505092007 | 43 | 298 | 0.0 | 1.0 | 0.00 | 0.00 | 0.00 | 74 | 1014.3 |
| 20260505091753 | 44 | 298 | 0.0 | 1.0 | 0.00 | 0.00 | 0.00 | 74 | 1015.8 |
| 20260505091513 | 43 | 298 | 0.0 | 1.0 | 0.00 | 0.00 | 0.00 | 74 | 1014.3 |
| 20260505091015 | 44 | 298 | 0.0 | 1.0 | 0.00 | 0.00 | 0.00 | 74 | 1015.8 |
| 20260505091006 | 43 | 298 | 0.0 | 1.0 | 0.00 | 0.00 | 0.00 | 73 | 1014.2 |
| 20260505090509 | 44 | 298 | 0.0 | 1.0 | 0.00 | 0.00 | 0.00 | 73 | 1015.7 |
| 20260505090506 | 44 | 298 | 0.0 | 1.0 | 0.00 | 0.00 | 0.00 | 73 | 1014.2 |
| 20260505090022 | 44 | 298 | 0.0 | 0.0 | 0.00 | 0.00 | 0.00 | 72 | 1014.2 |
| 20260505090004 | 45 | 298 | 0.0 | 0.0 | 0.00 | 0.00 | 0.00 | 72 | 1015.7 |
| 20260505085509 | 44 | 298 | 0.0 | 0.0 | 0.00 | 0.00 | 0.00 | 71 | 1014.2 |
| 20260505085457 | 45 | 298 | 0.0 | 0.0 | 0.00 | 0.00 | 0.00 | 72 | 1015.7 |
| 20260505085007 | 45 | 298 | 0.0 | 0.0 | 0.00 | 0.00 | 0.00 | 71 | 1014.1 |
| 20260505084951 | 45 | 298 | 0.0 | 0.0 | 0.00 | 0.00 | 0.00 | 72 | 1015.6 |
| 20260505084518 | 45 | 298 | 0.0 | 0.0 | 0.00 | 0.00 | 0.00 | 70 | 1014.1 |
| 20260505084446 | 46 | 298 | 0.0 | 0.0 | 0.00 | 0.00 | 0.00 | 71 | 1015.6 |
| 20260505084010 | 45 | 298 | 0.0 | 0.0 | 0.00 | 0.00 | 0.00 | 71 | 1014.1 |
| 20260505083938 | 46 | 298 | 0.0 | 0.0 | 0.00 | 0.00 | 0.00 | 71 | 1015.6 |
| 20260505083507 | 45 | 298 | 0.0 | 0.0 | 0.00 | 0.00 | 0.00 | 70 | 1014.1 |
| 20260505083433 | 46 | 298 | 0.0 | 0.0 | 0.00 | 0.00 | 0.00 | 70 | 1015.6 |
| 20260505083027 | 46 | 298 | 0.0 | 0.0 | 0.00 | 0.00 | 0.00 | 69 | 1014.0 |
| 20260505082927 | 46 | 298 | 0.0 | 0.0 | 0.00 | 0.00 | 0.00 | 70 | 1015.6 |
| 20260505082637 | 46 | 298 | 0.0 | 0.0 | 0.00 | 0.00 | 0.00 | 69 | 1015.6 |
| 20260505082511 | 46 | 298 | 0.0 | 0.0 | 0.00 | 0.00 | 0.00 | 68 | 1014.1 |
| 20260505082145 | 46 | 298 | 0.0 | 0.0 | 0.00 | 0.00 | 0.00 | 68 | 1015.6 |
| 20260505082010 | 46 | 298 | 0.0 | 0.0 | 0.00 | 0.00 | 0.00 | 68 | 1014.1 |
| 20260505081530 | 46 | 298 | 0.0 | 0.0 | 0.00 | 0.00 | 0.00 | 68 | 1014.1 |
| 20260505081409 | 47 | 298 | 0.0 | 0.0 | 0.00 | 0.00 | 0.00 | 68 | 1015.6 |
| 20260505081012 | 46 | 298 | 0.0 | 0.0 | 0.00 | 0.00 | 0.00 | 67 | 1014.1 |
| 20260505080903 | 47 | 298 | 0.0 | 0.0 | 0.00 | 0.00 | 0.00 | 67 | 1015.7 |
| 20260505080510 | 47 | 298 | 0.0 | 0.0 | 0.00 | 0.00 | 0.00 | 66 | 1014.1 |
| 20260505080357 | 47 | 298 | 0.0 | 0.0 | 0.00 | 0.00 | 0.00 | 67 | 1015.6 |
| 20260505080029 | 47 | 298 | 0.0 | 0.0 | 0.00 | 0.00 | 0.00 | 67 | 1014.1 |
| 20260505075851 | 47 | 298 | 0.0 | 0.0 | 0.00 | 0.00 | 0.00 | 67 | 1015.6 |
| 20260505075511 | 47 | 298 | 0.0 | 0.0 | 0.00 | 0.00 | 0.00 | 66 | 1014.1 |
| 20260505075012 | 47 | 298 | 0.0 | 0.0 | 0.00 | 0.00 | 0.00 | 65 | 1014.1 |
| 20260505074839 | 48 | 298 | 0.0 | 0.0 | 0.00 | 0.00 | 0.00 | 65 | 1015.6 |
| 20260505074520 | 48 | 298 | 0.0 | 0.0 | 0.00 | 0.00 | 0.00 | 64 | 1014.0 |
| 20260505074333 | 48 | 298 | 0.0 | 0.0 | 0.00 | 0.00 | 0.00 | 65 | 1015.5 |
| 20260505074007 | 48 | 298 | 0.0 | 0.0 | 0.00 | 0.00 | 0.00 | 64 | 1014.0 |
| 20260505073827 | 49 | 298 | 0.0 | 0.0 | 0.00 | 0.00 | 0.00 | 65 | 1015.5 |
| 20260505073508 | 48 | 298 | 0.0 | 0.0 | 0.00 | 0.00 | 0.00 | 64 | 1013.9 |
| 20260505073322 | 49 | 298 | 0.0 | 0.0 | 0.00 | 0.00 | 0.00 | 64 | 1015.3 |
| 20260505073041 | 49 | 298 | 0.0 | 0.0 | 0.00 | 0.00 | 0.00 | 63 | 1015.3 |
| 20260505073026 | 49 | 298 | 0.0 | 0.0 | 0.00 | 0.00 | 0.00 | 64 | 1013.9 |
| 20260505072510 | 49 | 298 | 0.0 | 0.0 | 0.00 | 0.00 | 0.00 | 62 | 1013.8 |
| 20260505072309 | 49 | 298 | 0.0 | 0.0 | 0.00 | 0.00 | 0.00 | 63 | 1015.3 |
| 20260505072007 | 49 | 298 | 0.0 | 0.0 | 0.00 | 0.00 | 0.00 | 61 | 1013.9 |
| 20260505071803 | 50 | 298 | 0.0 | 0.0 | 0.00 | 0.00 | 0.00 | 62 | 1015.2 |
| 20260505071530 | 50 | 298 | 0.0 | 0.0 | 0.00 | 0.00 | 0.00 | 61 | 1013.8 |
| 20260505071257 | 50 | 298 | 0.0 | 0.0 | 0.00 | 0.00 | 0.00 | 62 | 1015.1 |
| 20260505071009 | 50 | 298 | 0.0 | 0.0 | 0.00 | 0.00 | 0.00 | 62 | 1013.8 |
| 20260505070751 | 51 | 298 | 0.0 | 0.0 | 0.00 | 0.00 | 0.00 | 62 | 1015.1 |
| 20260505070506 | 50 | 298 | 0.0 | 0.0 | 0.00 | 0.00 | 0.00 | 61 | 1013.8 |
| 20260505070245 | 51 | 298 | 0.0 | 0.0 | 0.00 | 0.00 | 0.00 | 61 | 1015.1 |
| 20260505070008 | 52 | 298 | 0.0 | 0.0 | 0.00 | 0.00 | 0.00 | 61 | 1015.2 |
| 20260505070004 | 51 | 298 | 0.0 | 0.0 | 0.00 | 0.00 | 0.00 | 60 | 1013.7 |
| 20260505065503 | 51 | 298 | 0.0 | 2.0 | 0.00 | 0.00 | 0.00 | 60 | 1013.7 |
| 20260505065244 | 52 | 298 | 0.0 | 2.0 | 0.00 | 0.00 | 0.00 | 60 | 1015.1 |
| 20260505065005 | 52 | 298 | 0.0 | 2.0 | 0.00 | 0.00 | 0.00 | 58 | 1013.7 |
| 20260505064744 | 53 | 298 | 0.0 | 2.0 | 0.00 | 0.00 | 0.00 | 59 | 1015.1 |
| 20260505064508 | 53 | 298 | 0.0 | 1.0 | 0.00 | 0.00 | 0.00 | 59 | 1013.7 |
| 20260505064244 | 54 | 298 | 0.0 | 1.0 | 0.00 | 0.00 | 0.00 | 58 | 1015.1 |
| 20260505064002 | 54 | 298 | 0.0 | 1.0 | 0.00 | 0.00 | 0.00 | 58 | 1013.7 |
| 20260505063745 | 54 | 298 | 0.0 | 1.0 | 0.00 | 0.00 | 0.00 | 57 | 1015.1 |
| 20260505063503 | 54 | 298 | 0.0 | 0.0 | 0.00 | 0.00 | 0.00 | 56 | 1013.7 |
| 20260505063244 | 55 | 298 | 0.0 | 1.0 | 0.00 | 0.00 | 0.00 | 55 | 1015.1 |
| 20260505063004 | 55 | 298 | 0.0 | 1.0 | 0.00 | 0.00 | 0.00 | 55 | 1013.7 |
| 20260505062744 | 56 | 298 | 0.0 | 2.0 | 0.00 | 0.00 | 0.00 | 55 | 1015.2 |
| 20260505062503 | 55 | 298 | 0.0 | 2.0 | 0.00 | 0.00 | 0.00 | 55 | 1013.7 |
| 20260505062244 | 56 | 298 | 0.0 | 2.0 | 0.00 | 0.00 | 0.00 | 56 | 1015.1 |
| 20260505062002 | 56 | 298 | 0.0 | 2.0 | 0.00 | 0.00 | 0.00 | 55 | 1013.6 |
| 20260505061744 | 56 | 298 | 0.0 | 2.0 | 0.00 | 0.00 | 0.00 | 54 | 1015.1 |
| 20260505061507 | 56 | 297 | 0.0 | 1.0 | 0.00 | 0.00 | 0.00 | 48 | 1013.6 |
| 20260505061240 | 56 | 298 | 0.0 | 2.0 | 0.00 | 0.00 | 0.00 | 46 | 1015.0 |
| 20260505061003 | 56 | 298 | 0.0 | 3.0 | 0.00 | 0.00 | 0.00 | 46 | 1013.5 |
| 20260505061001 | 57 | 298 | 0.0 | 3.0 | 0.00 | 0.00 | 0.00 | 45 | 1015.1 |
| 20260505060504 | 58 | 298 | 0.0 | 3.0 | 0.00 | 0.00 | 0.00 | 45 | 1015.0 |
| 20260505060016 | 57 | 283 | 0.0 | 2.0 | 0.00 | 0.00 | 0.00 | 44 | 1013.5 |
| 20260505055740 | 58 | 283 | 0.0 | 2.0 | 0.00 | 0.00 | 0.00 | 44 | 1015.1 |
| 20260505055503 | 58 | 283 | 0.0 | 2.0 | 0.00 | 0.00 | 0.00 | 43 | 1013.4 |
| 20260505055239 | 58 | 283 | 0.0 | 2.0 | 0.00 | 0.00 | 0.00 | 44 | 1015.1 |
| 20260505055004 | 58 | 283 | 0.0 | 3.0 | 0.00 | 0.00 | 0.00 | 43 | 1013.5 |
| 20260505054740 | 59 | 283 | 0.0 | 3.0 | 0.00 | 0.00 | 0.00 | 43 | 1015.1 |
| 20260505054504 | 58 | 283 | 0.0 | 3.0 | 0.00 | 0.00 | 0.00 | 42 | 1013.4 |
| 20260505054240 | 59 | 283 | 1.0 | 3.0 | 0.00 | 0.00 | 0.00 | 42 | 1015.1 |
| 20260505054006 | 59 | 188 | 0.0 | 2.0 | 0.00 | 0.00 | 0.00 | 41 | 1013.4 |
| 20260505053740 | 59 | 188 | 0.0 | 2.0 | 0.00 | 0.00 | 0.00 | 41 | 1015.0 |
| 20260505053503 | 59 | 188 | 0.0 | 3.0 | 0.00 | 0.00 | 0.00 | 41 | 1013.4 |
| 20260505053004 | 59 | 186 | 0.0 | 3.0 | 0.00 | 0.00 | 0.00 | 40 | 1013.5 |
| 20260505052733 | 60 | 186 | 1.0 | 3.0 | 0.00 | 0.00 | 0.00 | 42 | 1015.1 |
| 20260505052502 | 59 | 186 | 1.0 | 3.0 | 0.00 | 0.00 | 0.00 | 40 | 1013.4 |
| 20260505052234 | 60 | 309 | 1.0 | 3.0 | 0.00 | 0.00 | 0.00 | 40 | 1015.0 |
| 20260505052003 | 59 | 316 | 0.0 | 4.0 | 0.00 | 0.00 | 0.00 | 40 | 1013.4 |
| 20260505051956 | 60 | 316 | 1.0 | 4.0 | 0.00 | 0.00 | 0.00 | 40 | 1014.8 |
| 20260505051512 | 60 | 254 | 0.0 | 4.0 | 0.00 | 0.00 | 0.00 | 40 | 1013.4 |
| 20260505051234 | 60 | 315 | 1.0 | 6.0 | 0.00 | 0.00 | 0.00 | 40 | 1014.7 |
| 20260505051003 | 59 | 40 | 0.0 | 6.0 | 0.00 | 0.00 | 0.00 | 40 | 1013.4 |
| 20260505050732 | 60 | 180 | 1.0 | 6.0 | 0.00 | 0.00 | 0.00 | 41 | 1014.8 |
| 20260505050504 | 60 | 210 | 1.0 | 6.0 | 0.00 | 0.00 | 0.00 | 39 | 1013.4 |
| 20260505050232 | 60 | 88 | 1.0 | 5.0 | 0.00 | 0.00 | 0.00 | 40 | 1014.8 |
| 20260505041730 | 59 | 150 | 1.0 | 3.0 | 0.00 | 0.00 | 0.00 | 42 | 1014.5 |
| 20260505041508 | 59 | 140 | 1.0 | 3.0 | 0.00 | 0.00 | 0.00 | 44 | 1013.2 |
| 20260505041228 | 59 | 127 | 1.0 | 3.0 | 0.00 | 0.00 | 0.00 | 42 | 1014.5 |
| 20260505041003 | 59 | 124 | 0.0 | 4.0 | 0.00 | 0.00 | 0.00 | 42 | 1013.2 |
| 20260505040722 | 59 | 134 | 1.0 | 4.0 | 0.00 | 0.00 | 0.00 | 44 | 1014.4 |
| 20260505040503 | 58 | 161 | 0.0 | 4.0 | 0.00 | 0.00 | 0.00 | 43 | 1013.2 |
| 20260505040215 | 59 | 164 | 1.0 | 4.0 | 0.00 | 0.00 | 0.00 | 43 | 1014.4 |
| 20260505040005 | 58 | 139 | 0.0 | 3.0 | 0.00 | 0.00 | 0.00 | 43 | 1013.1 |
| 20260505035937 | 59 | 139 | 1.0 | 3.0 | 0.00 | 0.00 | 0.00 | 45 | 1014.4 |
| 20260505035503 | 58 | 144 | 1.0 | 3.0 | 0.00 | 0.00 | 0.00 | 45 | 1013.1 |
| 20260505035202 | 59 | 184 | 0.0 | 2.0 | 0.00 | 0.00 | 0.00 | 43 | 1014.3 |
| 20260505035003 | 58 | 184 | 0.0 | 2.0 | 0.00 | 0.00 | 0.00 | 44 | 1013.0 |
| 20260505034658 | 59 | 184 | 0.0 | 2.0 | 0.00 | 0.00 | 0.00 | 45 | 1014.3 |
| 20260505034507 | 58 | 184 | 0.0 | 3.0 | 0.00 | 0.00 | 0.00 | 44 | 1012.8 |
| 20260505034151 | 59 | 184 | 0.0 | 3.0 | 0.00 | 0.00 | 0.00 | 45 | 1014.2 |
| 20260505034003 | 59 | 184 | 0.0 | 3.0 | 0.00 | 0.00 | 0.00 | 44 | 1012.6 |
| 20260505033915 | 59 | 184 | 0.0 | 3.0 | 0.00 | 0.00 | 0.00 | 45 | 1014.3 |
| 20260505033506 | 59 | 271 | 0.0 | 2.0 | 0.00 | 0.00 | 0.00 | 44 | 1012.5 |
| 20260505033139 | 60 | 260 | 0.0 | 2.0 | 0.00 | 0.00 | 0.00 | 45 | 1014.2 |
| 20260505033016 | 60 | 260 | 0.0 | 1.0 | 0.00 | 0.00 | 0.00 | 45 | 1012.5 |
| 20260505032633 | 60 | 260 | 0.0 | 1.0 | 0.00 | 0.00 | 0.00 | 45 | 1014.2 |
| 20260505032503 | 60 | 260 | 0.0 | 1.0 | 0.00 | 0.00 | 0.00 | 44 | 1012.5 |
| 20260505032127 | 61 | 260 | 0.0 | 1.0 | 0.00 | 0.00 | 0.00 | 43 | 1014.1 |
| 20260505032004 | 61 | 260 | 0.0 | 2.0 | 0.00 | 0.00 | 0.00 | 43 | 1012.5 |
| 20260505031621 | 62 | 260 | 0.0 | 2.0 | 0.00 | 0.00 | 0.00 | 42 | 1014.0 |
| 20260505031515 | 62 | 260 | 0.0 | 2.0 | 0.00 | 0.00 | 0.00 | 41 | 1012.5 |
| 20260505031115 | 63 | 260 | 0.0 | 2.0 | 0.00 | 0.00 | 0.00 | 42 | 1013.9 |
| 20260505031005 | 63 | 260 | 0.0 | 2.0 | 0.00 | 0.00 | 0.00 | 40 | 1012.5 |
| 20260505030609 | 64 | 260 | 0.0 | 2.0 | 0.00 | 0.00 | 0.00 | 41 | 1014.0 |
| 20260505030503 | 63 | 260 | 0.0 | 2.0 | 0.00 | 0.00 | 0.00 | 40 | 1012.5 |
| 20260505030012 | 64 | 260 | 0.0 | 2.0 | 0.00 | 0.00 | 0.00 | 39 | 1012.4 |
| 20260505025558 | 64 | 269 | 0.0 | 2.0 | 0.00 | 0.00 | 0.00 | 38 | 1013.9 |
| 20260505025512 | 64 | 269 | 0.0 | 2.0 | 0.00 | 0.00 | 0.00 | 37 | 1012.3 |
| 20260505025051 | 65 | 269 | 1.0 | 2.0 | 0.00 | 0.00 | 0.00 | 36 | 1014.0 |
| 20260505025004 | 64 | 266 | 0.0 | 6.0 | 0.00 | 0.00 | 0.00 | 36 | 1012.3 |
| 20260505024545 | 65 | 272 | 1.0 | 6.0 | 0.00 | 0.00 | 0.00 | 37 | 1013.9 |
| 20260505024506 | 65 | 272 | 0.0 | 6.0 | 0.00 | 0.00 | 0.00 | 36 | 1012.2 |
| 20260505024039 | 65 | 259 | 1.0 | 6.0 | 0.00 | 0.00 | 0.00 | 36 | 1013.7 |
| 20260505024004 | 65 | 241 | 0.0 | 4.0 | 0.00 | 0.00 | 0.00 | 36 | 1012.2 |
| 20260505023533 | 66 | 268 | 1.0 | 3.0 | 0.00 | 0.00 | 0.00 | 35 | 1013.6 |
| 20260505023503 | 65 | 268 | 0.0 | 3.0 | 0.00 | 0.00 | 0.00 | 35 | 1012.2 |
| 20260505023251 | 66 | 313 | 1.0 | 4.0 | 0.00 | 0.00 | 0.00 | 35 | 1013.6 |
| 20260505023013 | 66 | 313 | 0.0 | 4.0 | 0.00 | 0.00 | 0.00 | 34 | 1012.1 |
| 20260505022521 | 67 | 179 | 1.0 | 4.0 | 0.00 | 0.00 | 0.00 | 35 | 1013.6 |
| 20260505022503 | 66 | 179 | 0.0 | 4.0 | 0.00 | 0.00 | 0.00 | 34 | 1012.0 |
| 20260505022014 | 67 | 229 | 1.0 | 4.0 | 0.00 | 0.00 | 0.00 | 34 | 1013.6 |
| 20260505022004 | 67 | 229 | 1.0 | 4.0 | 0.00 | 0.00 | 0.00 | 33 | 1012.0 |
| 20260505021517 | 67 | 186 | 0.0 | 3.0 | 0.00 | 0.00 | 0.00 | 33 | 1012.0 |
| 20260505021509 | 67 | 186 | 1.0 | 3.0 | 0.00 | 0.00 | 0.00 | 34 | 1013.6 |
| 20260505021227 | 68 | 325 | 1.0 | 3.0 | 0.00 | 0.00 | 0.00 | 35 | 1013.6 |
| 20260505021006 | 67 | 325 | 0.0 | 3.0 | 0.00 | 0.00 | 0.00 | 34 | 1012.0 |
| 20260505020507 | 67 | 360 | 1.0 | 3.0 | 0.00 | 0.00 | 0.00 | 33 | 1012.1 |
| 20260505020457 | 68 | 351 | 1.0 | 3.0 | 0.00 | 0.00 | 0.00 | 33 | 1013.7 |
| 20260505020022 | 67 | 196 | 1.0 | 6.0 | 0.00 | 0.00 | 0.00 | 32 | 1012.0 |
| 20260505015951 | 68 | 196 | 1.0 | 6.0 | 0.00 | 0.00 | 0.00 | 33 | 1013.5 |
| 20260505015503 | 67 | 255 | 1.0 | 6.0 | 0.00 | 0.00 | 0.00 | 31 | 1012.0 |
| 20260505015445 | 68 | 247 | 2.0 | 6.0 | 0.00 | 0.00 | 0.00 | 32 | 1013.6 |
| 20260505015005 | 68 | 108 | 2.0 | 8.0 | 0.00 | 0.00 | 0.00 | 31 | 1012.0 |
| 20260505014939 | 68 | 212 | 2.0 | 8.0 | 0.00 | 0.00 | 0.00 | 31 | 1013.6 |
| 20260505014520 | 68 | 269 | 1.0 | 8.0 | 0.00 | 0.00 | 0.00 | 31 | 1012.0 |
| 20260505014433 | 68 | 252 | 2.0 | 8.0 | 0.00 | 0.00 | 0.00 | 31 | 1013.6 |
| 20260505014010 | 68 | 217 | 2.0 | 6.0 | 0.00 | 0.00 | 0.00 | 31 | 1011.9 |
| 20260505013927 | 68 | 216 | 2.0 | 6.0 | 0.00 | 0.00 | 0.00 | 31 | 1013.5 |
| 20260505013502 | 68 | 269 | 1.0 | 7.0 | 0.00 | 0.00 | 0.00 | 31 | 1012.0 |
| 20260505013421 | 68 | 126 | 2.0 | 7.0 | 0.00 | 0.00 | 0.00 | 32 | 1013.6 |
| 20260505013008 | 68 | 115 | 1.0 | 7.0 | 0.00 | 0.00 | 0.00 | 31 | 1012.1 |
| 20260505012915 | 68 | 106 | 3.0 | 7.0 | 0.00 | 0.00 | 0.00 | 30 | 1013.6 |
| 20260505012504 | 68 | 312 | 2.0 | 6.0 | 0.00 | 0.00 | 0.00 | 30 | 1012.1 |
| 20260505012409 | 69 | 198 | 2.0 | 6.0 | 0.00 | 0.00 | 0.00 | 31 | 1013.7 |
| 20260505012004 | 68 | 258 | 2.0 | 9.0 | 0.00 | 0.00 | 0.00 | 31 | 1012.1 |
| 20260505011903 | 69 | 119 | 2.0 | 9.0 | 0.00 | 0.00 | 0.00 | 32 | 1013.7 |
| 20260505011512 | 68 | 333 | 2.0 | 9.0 | 0.00 | 0.00 | 0.00 | 31 | 1012.2 |
| 20260505011357 | 69 | 337 | 3.0 | 9.0 | 0.00 | 0.00 | 0.00 | 31 | 1013.7 |
| 20260505011005 | 69 | 80 | 2.0 | 7.0 | 0.00 | 0.00 | 0.00 | 30 | 1012.2 |
| 20260505010851 | 69 | 232 | 2.0 | 7.0 | 0.00 | 0.00 | 0.00 | 30 | 1013.9 |
| 20260505010606 | 70 | 227 | 1.0 | 4.0 | 0.00 | 0.00 | 0.00 | 31 | 1013.9 |
| 20260505010510 | 69 | 142 | 2.0 | 7.0 | 0.00 | 0.00 | 0.00 | 29 | 1012.2 |
| 20260505010009 | 69 | 306 | 1.0 | 5.0 | 0.00 | 0.00 | 0.00 | 30 | 1012.2 |
| 20260505005839 | 70 | 143 | 2.0 | 5.0 | 0.00 | 0.00 | 0.00 | 31 | 1014.0 |
| 20260505005507 | 69 | 300 | 2.0 | 7.0 | 0.00 | 0.00 | 0.00 | 30 | 1012.3 |
| 20260505005333 | 70 | 53 | 2.0 | 7.0 | 0.00 | 0.00 | 0.00 | 31 | 1013.9 |
| 20260505005006 | 69 | 199 | 1.0 | 10.0 | 0.00 | 0.00 | 0.00 | 29 | 1012.3 |
| 20260505004827 | 70 | 306 | 2.0 | 10.0 | 0.00 | 0.00 | 0.00 | 29 | 1013.9 |
| 20260505004541 | 70 | 272 | 2.0 | 10.0 | 0.00 | 0.00 | 0.00 | 29 | 1014.0 |
| 20260505004525 | 70 | 275 | 2.0 | 10.0 | 0.00 | 0.00 | 0.00 | 28 | 1012.2 |
| 20260505004003 | 70 | 277 | 1.0 | 6.0 | 0.00 | 0.00 | 0.00 | 30 | 1012.2 |
| 20260505003816 | 71 | 88 | 1.0 | 6.0 | 0.00 | 0.00 | 0.00 | 31 | 1013.9 |
| 20260505003535 | 70 | 318 | 2.0 | 6.0 | 0.00 | 0.00 | 0.00 | 30 | 1014.0 |
| 20260505003511 | 70 | 88 | 2.0 | 6.0 | 0.00 | 0.00 | 0.00 | 30 | 1012.3 |
| 20260505003024 | 69 | 126 | 0.0 | 6.0 | 0.00 | 0.00 | 0.00 | 30 | 1012.4 |
| 20260505002808 | 70 | 139 | 2.0 | 6.0 | 0.00 | 0.00 | 0.00 | 31 | 1013.9 |
| 20260505002505 | 69 | 161 | 1.0 | 8.0 | 0.00 | 0.00 | 0.00 | 30 | 1012.3 |
| 20260505002307 | 70 | 325 | 2.0 | 8.0 | 0.00 | 0.00 | 0.00 | 30 | 1013.9 |
| 20260505002007 | 69 | 193 | 1.0 | 8.0 | 0.00 | 0.00 | 0.00 | 31 | 1012.3 |
| 20260505001509 | 69 | 233 | 2.0 | 9.0 | 0.00 | 0.00 | 0.00 | 30 | 1012.2 |
| 20260505001305 | 69 | 105 | 3.0 | 9.0 | 0.00 | 0.00 | 0.00 | 31 | 1013.7 |
| 20260505001004 | 69 | 329 | 1.0 | 10.0 | 0.00 | 0.00 | 0.00 | 30 | 1012.3 |
| 20260505000805 | 69 | 281 | 3.0 | 10.0 | 0.00 | 0.00 | 0.00 | 30 | 1013.9 |
| 20260505000504 | 69 | 209 | 2.0 | 10.0 | 0.00 | 0.00 | 0.00 | 31 | 1012.2 |
| 20260505000305 | 69 | 61 | 2.0 | 10.0 | 0.00 | 0.00 | 0.00 | 32 | 1014.0 |
| 20260505000023 | 69 | 319 | 2.0 | 6.0 | 0.00 | 0.00 | 0.00 | 31 | 1012.2 |
| 20260504235806 | 69 | 85 | 2.0 | 9.0 | 0.00 | 0.00 | 0.00 | 31 | 1013.9 |
| 20260504235507 | 69 | 234 | 1.0 | 9.0 | 0.00 | 0.00 | 0.00 | 31 | 1012.2 |
| 20260504235304 | 69 | 182 | 2.0 | 9.0 | 0.00 | 0.00 | 0.00 | 32 | 1013.9 |
| 20260504235008 | 68 | 225 | 2.0 | 9.0 | 0.00 | 0.00 | 0.00 | 31 | 1012.2 |
| 20260504234802 | 69 | 234 | 2.0 | 8.0 | 0.00 | 0.00 | 0.00 | 31 | 1013.9 |
| 20260504234518 | 69 | 241 | 1.0 | 8.0 | 0.00 | 0.00 | 0.00 | 31 | 1012.3 |
| 20260504234301 | 69 | 325 | 2.0 | 8.0 | 0.00 | 0.00 | 0.00 | 32 | 1013.9 |
| 20260504234006 | 69 | 288 | 2.0 | 6.0 | 0.00 | 0.00 | 0.00 | 30 | 1012.2 |
| 20260504233801 | 69 | 242 | 2.0 | 6.0 | 0.00 | 0.00 | 0.00 | 31 | 1013.9 |
| 20260504233506 | 69 | 296 | 0.0 | 6.0 | 0.00 | 0.00 | 0.00 | 31 | 1012.2 |
| 20260504233300 | 69 | 286 | 2.0 | 6.0 | 0.00 | 0.00 | 0.00 | 30 | 1013.9 |
| 20260504233026 | 69 | 239 | 2.0 | 12.0 | 0.00 | 0.00 | 0.00 | 32 | 1014.0 |
| 20260504233013 | 69 | 181 | 0.0 | 12.0 | 0.00 | 0.00 | 0.00 | 31 | 1012.3 |
| 20260504232520 | 69 | 275 | 2.0 | 12.0 | 0.00 | 0.00 | 0.00 | 32 | 1014.1 |
| 20260504232508 | 68 | 150 | 1.0 | 12.0 | 0.00 | 0.00 | 0.00 | 32 | 1012.2 |
| 20260504232010 | 69 | 290 | 3.0 | 12.0 | 0.00 | 0.00 | 0.00 | 30 | 1012.3 |
| 20260504231757 | 69 | 290 | 2.0 | 6.0 | 0.00 | 0.00 | 0.00 | 32 | 1014.0 |
| 20260504231526 | 69 | 9 | 1.0 | 6.0 | 0.00 | 0.00 | 0.00 | 31 | 1012.3 |
| 20260504231257 | 69 | 165 | 2.0 | 5.0 | 0.00 | 0.00 | 0.00 | 32 | 1013.9 |
| 20260504231022 | 69 | 24 | 3.0 | 9.0 | 0.00 | 0.00 | 0.00 | 32 | 1014.0 |
| 20260504231009 | 69 | 240 | 1.0 | 7.0 | 0.00 | 0.00 | 0.00 | 32 | 1012.3 |
| 20260504230508 | 68 | 290 | 2.0 | 9.0 | 0.00 | 0.00 | 0.00 | 31 | 1012.3 |
| 20260504230255 | 69 | 269 | 2.0 | 9.0 | 0.00 | 0.00 | 0.00 | 32 | 1014.0 |
| 20260504230028 | 69 | 109 | 2.0 | 9.0 | 0.00 | 0.00 | 0.00 | 32 | 1012.3 |
| 20260504230016 | 69 | 112 | 2.0 | 9.0 | 0.00 | 0.00 | 0.00 | 30 | 1014.0 |
| 20260504225506 | 69 | 186 | 1.0 | 9.0 | 0.00 | 0.00 | 0.00 | 31 | 1012.4 |
| 20260504225249 | 69 | 121 | 2.0 | 9.0 | 0.00 | 0.00 | 0.00 | 31 | 1014.0 |
| 20260504225009 | 69 | 276 | 2.0 | 8.0 | 0.00 | 0.00 | 0.00 | 30 | 1012.4 |
| 20260504225003 | 69 | 299 | 2.0 | 5.0 | 0.00 | 0.00 | 0.00 | 30 | 1014.0 |
| 20260504224519 | 69 | 308 | 0.0 | 7.0 | 0.00 | 0.00 | 0.00 | 31 | 1012.5 |
| 20260504224242 | 69 | 304 | 2.0 | 7.0 | 0.00 | 0.00 | 0.00 | 30 | 1014.0 |
| 20260504224006 | 69 | 17 | 2.0 | 9.0 | 0.00 | 0.00 | 0.00 | 30 | 1012.5 |
| 20260504223742 | 69 | 116 | 2.0 | 9.0 | 0.00 | 0.00 | 0.00 | 30 | 1014.1 |
| 20260504223507 | 69 | 197 | 1.0 | 9.0 | 0.00 | 0.00 | 0.00 | 29 | 1012.5 |
| 20260504223241 | 69 | 232 | 2.0 | 9.0 | 0.00 | 0.00 | 0.00 | 29 | 1014.1 |
| 20260504223022 | 69 | 261 | 2.0 | 9.0 | 0.00 | 0.00 | 0.00 | 29 | 1012.5 |
| 20260504223003 | 69 | 321 | 1.0 | 7.0 | 0.00 | 0.00 | 0.00 | 30 | 1014.2 |
| 20260504222506 | 69 | 180 | 1.0 | 7.0 | 0.00 | 0.00 | 0.00 | 31 | 1012.5 |
| 20260504222458 | 69 | 118 | 2.0 | 6.0 | 0.00 | 0.00 | 0.00 | 32 | 1014.2 |
| 20260504222006 | 69 | 53 | 0.0 | 6.0 | 0.00 | 0.00 | 0.00 | 29 | 1012.6 |
| 20260504221738 | 69 | 113 | 2.0 | 10.0 | 0.00 | 0.00 | 0.00 | 30 | 1014.1 |
| 20260504221519 | 69 | 117 | 2.0 | 10.0 | 0.00 | 0.00 | 0.00 | 29 | 1012.6 |
| 20260504221239 | 69 | 193 | 2.0 | 10.0 | 0.00 | 0.00 | 0.00 | 30 | 1014.0 |
| 20260504221010 | 69 | 265 | 4.0 | 10.0 | 0.00 | 0.00 | 0.00 | 27 | 1012.4 |
| 20260504220739 | 69 | 144 | 2.0 | 7.0 | 0.00 | 0.00 | 0.00 | 27 | 1014.1 |
| 20260504220512 | 69 | 283 | 2.0 | 7.0 | 0.00 | 0.00 | 0.00 | 30 | 1012.5 |
| 20260504220240 | 69 | 132 | 2.0 | 6.0 | 0.00 | 0.00 | 0.00 | 31 | 1014.1 |
| 20260504220029 | 69 | 119 | 2.0 | 14.0 | 0.00 | 0.00 | 0.00 | 30 | 1012.5 |
| 20260504215739 | 70 | 267 | 3.0 | 14.0 | 0.00 | 0.00 | 0.00 | 29 | 1014.2 |
| 20260504215508 | 69 | 210 | 2.0 | 14.0 | 0.00 | 0.00 | 0.00 | 30 | 1012.5 |
| 20260504215239 | 70 | 214 | 3.0 | 14.0 | 0.00 | 0.00 | 0.00 | 29 | 1014.2 |
| 20260504215012 | 70 | 325 | 4.0 | 14.0 | 0.00 | 0.00 | 0.00 | 28 | 1012.6 |
| 20260504214739 | 70 | 337 | 2.0 | 7.0 | 0.00 | 0.00 | 0.00 | 30 | 1014.3 |
| 20260504214528 | 70 | 294 | 2.0 | 10.0 | 0.00 | 0.00 | 0.00 | 29 | 1012.8 |
| 20260504214239 | 70 | 127 | 2.0 | 10.0 | 0.00 | 0.00 | 0.00 | 26 | 1014.4 |
| 20260504214010 | 70 | 299 | 2.0 | 10.0 | 0.00 | 0.00 | 0.00 | 27 | 1012.7 |
| 20260504213739 | 71 | 114 | 2.0 | 10.0 | 0.00 | 0.00 | 0.00 | 27 | 1014.4 |
| 20260504213506 | 70 | 153 | 0.0 | 7.0 | 0.00 | 0.00 | 0.00 | 28 | 1012.8 |
| 20260504213239 | 70 | 328 | 2.0 | 7.0 | 0.00 | 0.00 | 0.00 | 29 | 1014.3 |
| 20260504213022 | 70 | 317 | 3.0 | 9.0 | 0.00 | 0.00 | 0.00 | 26 | 1013.1 |
| 20260504212739 | 71 | 315 | 3.0 | 9.0 | 0.00 | 0.00 | 0.00 | 28 | 1014.4 |
| 20260504212509 | 70 | 42 | 1.0 | 11.0 | 0.00 | 0.00 | 0.00 | 29 | 1012.7 |
| 20260504212239 | 70 | 0 | 4.0 | 11.0 | 0.00 | 0.00 | 0.00 | 29 | 1014.3 |
| 20260504212010 | 70 | 191 | 3.0 | 11.0 | 0.00 | 0.00 | 0.00 | 30 | 1012.8 |
| 20260504211530 | 71 | 281 | 1.0 | 8.0 | 0.00 | 0.00 | 0.00 | 27 | 1012.8 |
| 20260504211238 | 71 | 92 | 2.0 | 8.0 | 0.00 | 0.00 | 0.00 | 28 | 1014.4 |
| 20260504211007 | 71 | 348 | 2.0 | 8.0 | 0.00 | 0.00 | 0.00 | 25 | 1012.9 |
| 20260504210739 | 72 | 104 | 2.0 | 8.0 | 0.00 | 0.00 | 0.00 | 29 | 1014.5 |
| 20260504210506 | 71 | 117 | 2.0 | 8.0 | 0.00 | 0.00 | 0.00 | 31 | 1012.9 |
| 20260504210239 | 71 | 217 | 2.0 | 6.0 | 0.00 | 0.00 | 0.00 | 31 | 1014.5 |
| 20260504210026 | 70 | 264 | 1.0 | 6.0 | 0.00 | 0.00 | 0.00 | 28 | 1012.9 |
| 20260504210005 | 71 | 279 | 2.0 | 6.0 | 0.00 | 0.00 | 0.00 | 29 | 1014.5 |
| 20260504205514 | 70 | 187 | 1.0 | 7.0 | 0.00 | 0.00 | 0.00 | 29 | 1013.0 |
| 20260504205238 | 70 | 256 | 2.0 | 7.0 | 0.00 | 0.00 | 0.00 | 30 | 1014.7 |
| 20260504205007 | 70 | 127 | 2.0 | 9.0 | 0.00 | 0.00 | 0.00 | 29 | 1013.0 |
| 20260504204737 | 70 | 269 | 3.0 | 9.0 | 0.00 | 0.00 | 0.00 | 29 | 1014.7 |
| 20260504204527 | 69 | 188 | 1.0 | 9.0 | 0.00 | 0.00 | 0.00 | 29 | 1013.0 |
| 20260504204237 | 69 | 274 | 3.0 | 9.0 | 0.00 | 0.00 | 0.00 | 29 | 1014.8 |
| 20260504204009 | 69 | 184 | 2.0 | 11.0 | 0.00 | 0.00 | 0.00 | 28 | 1013.1 |
| 20260504203737 | 69 | 274 | 3.0 | 11.0 | 0.00 | 0.00 | 0.00 | 30 | 1014.7 |
| 20260504203503 | 69 | 311 | 1.0 | 11.0 | 0.00 | 0.00 | 0.00 | 29 | 1013.1 |
| 20260504203237 | 70 | 267 | 3.0 | 11.0 | 0.00 | 0.00 | 0.00 | 29 | 1014.7 |
| 20260504203006 | 69 | 213 | 1.0 | 10.0 | 0.00 | 0.00 | 0.00 | 29 | 1013.2 |
| 20260504202736 | 70 | 229 | 2.0 | 10.0 | 0.00 | 0.00 | 0.00 | 29 | 1014.7 |
| 20260504202502 | 70 | 323 | 3.0 | 10.0 | 0.00 | 0.00 | 0.00 | 28 | 1013.1 |
| 20260504202230 | 70 | 284 | 2.0 | 8.0 | 0.00 | 0.00 | 0.00 | 30 | 1014.8 |
| 20260504202004 | 70 | 94 | 1.0 | 6.0 | 0.00 | 0.00 | 0.00 | 32 | 1013.1 |
| 20260504201724 | 70 | 98 | 2.0 | 6.0 | 0.00 | 0.00 | 0.00 | 31 | 1014.8 |
| 20260504201504 | 70 | 304 | 1.0 | 10.0 | 0.00 | 0.00 | 0.00 | 29 | 1013.1 |
| 20260504201219 | 70 | 232 | 2.0 | 10.0 | 0.00 | 0.00 | 0.00 | 30 | 1014.8 |
| 20260504201004 | 69 | 243 | 2.0 | 10.0 | 0.00 | 0.00 | 0.00 | 31 | 1013.2 |
| 20260504200713 | 69 | 315 | 2.0 | 10.0 | 0.00 | 0.00 | 0.00 | 30 | 1014.8 |
| 20260504200503 | 69 | 265 | 0.0 | 7.0 | 0.00 | 0.00 | 0.00 | 33 | 1013.3 |
| 20260504200206 | 69 | 316 | 2.0 | 8.0 | 0.00 | 0.00 | 0.00 | 33 | 1014.8 |
| 20260504200004 | 68 | 146 | 1.0 | 8.0 | 0.00 | 0.00 | 0.00 | 33 | 1013.3 |
| 20260504195923 | 68 | 243 | 3.0 | 13.0 | 0.00 | 0.00 | 0.00 | 31 | 1014.7 |
| 20260504195502 | 68 | 261 | 3.0 | 13.0 | 0.00 | 0.00 | 0.00 | 31 | 1013.3 |
| 20260504195155 | 68 | 321 | 3.0 | 13.0 | 0.00 | 0.00 | 0.00 | 31 | 1014.9 |
| 20260504195003 | 68 | 315 | 5.0 | 13.0 | 0.00 | 0.00 | 0.00 | 30 | 1013.4 |
| 20260504194653 | 69 | 320 | 2.0 | 11.0 | 0.00 | 0.00 | 0.00 | 31 | 1014.8 |
| 20260504194507 | 69 | 239 | 2.0 | 11.0 | 0.00 | 0.00 | 0.00 | 31 | 1013.4 |
| 20260504194153 | 69 | 242 | 2.0 | 9.0 | 0.00 | 0.00 | 0.00 | 32 | 1015.0 |
| 20260504194003 | 69 | 125 | 0.0 | 9.0 | 0.00 | 0.00 | 0.00 | 33 | 1013.3 |
| 20260504193652 | 69 | 63 | 2.0 | 9.0 | 0.00 | 0.00 | 0.00 | 32 | 1015.0 |
| 20260504193503 | 69 | 282 | 1.0 | 9.0 | 0.00 | 0.00 | 0.00 | 32 | 1013.4 |
| 20260504193009 | 69 | 115 | 2.0 | 7.0 | 0.00 | 0.00 | 0.00 | 32 | 1013.5 |
| 20260504192913 | 70 | 159 | 2.0 | 6.0 | 0.00 | 0.00 | 0.00 | 31 | 1014.9 |
| 20260504192506 | 70 | 188 | 2.0 | 6.0 | 0.00 | 0.00 | 0.00 | 31 | 1013.6 |
| 20260504192410 | 70 | 277 | 1.0 | 6.0 | 0.00 | 0.00 | 0.00 | 32 | 1015.0 |
| 20260504192002 | 70 | 130 | 0.0 | 5.0 | 0.00 | 0.00 | 0.00 | 31 | 1013.4 |
| 20260504191647 | 70 | 24 | 1.0 | 4.0 | 0.00 | 0.00 | 0.00 | 34 | 1015.0 |
| 20260504191504 | 69 | 88 | 1.0 | 4.0 | 0.00 | 0.00 | 0.00 | 33 | 1013.5 |
| 20260504191415 | 69 | 9 | 1.0 | 6.0 | 0.00 | 0.00 | 0.00 | 33 | 1015.0 |
| 20260504191002 | 69 | 91 | 1.0 | 7.0 | 0.00 | 0.00 | 0.00 | 34 | 1013.5 |
| 20260504190647 | 69 | 111 | 2.0 | 7.0 | 0.00 | 0.00 | 0.00 | 35 | 1015.0 |
| 20260504190504 | 68 | 101 | 1.0 | 7.0 | 0.00 | 0.00 | 0.00 | 33 | 1013.5 |
| 20260504190146 | 68 | 132 | 2.0 | 7.0 | 0.00 | 0.00 | 0.00 | 33 | 1014.9 |
| 20260504190004 | 68 | 204 | 2.0 | 9.0 | 0.00 | 0.00 | 0.00 | 34 | 1013.5 |
| 20260504185647 | 67 | 255 | 2.0 | 9.0 | 0.00 | 0.00 | 0.00 | 35 | 1015.0 |
| 20260504185503 | 67 | 71 | 0.0 | 9.0 | 0.00 | 0.00 | 0.00 | 37 | 1013.6 |
| 20260504185146 | 67 | 141 | 2.0 | 9.0 | 0.00 | 0.00 | 0.00 | 34 | 1014.9 |
| 20260504185006 | 67 | 234 | 2.0 | 9.0 | 0.00 | 0.00 | 0.00 | 33 | 1013.6 |
| 20260504184647 | 68 | 197 | 2.0 | 8.0 | 0.00 | 0.00 | 0.00 | 34 | 1015.0 |
| 20260504184504 | 67 | 294 | 1.0 | 5.0 | 0.00 | 0.00 | 0.00 | 34 | 1013.6 |
| 20260504184409 | 67 | 73 | 2.0 | 6.0 | 0.00 | 0.00 | 0.00 | 35 | 1015.0 |
| 20260504184007 | 66 | 184 | 2.0 | 7.0 | 0.00 | 0.00 | 0.00 | 35 | 1013.6 |
| 20260504183642 | 67 | 187 | 2.0 | 7.0 | 0.00 | 0.00 | 0.00 | 34 | 1015.1 |
| 20260504183504 | 66 | 236 | 2.0 | 7.0 | 0.00 | 0.00 | 0.00 | 34 | 1013.6 |
| 20260504183143 | 67 | 175 | 3.0 | 13.0 | 0.00 | 0.00 | 0.00 | 35 | 1015.1 |
| 20260504183011 | 66 | 229 | 1.0 | 13.0 | 0.00 | 0.00 | 0.00 | 35 | 1013.6 |
| 20260504182641 | 66 | 86 | 3.0 | 13.0 | 0.00 | 0.00 | 0.00 | 36 | 1015.0 |
| 20260504182503 | 66 | 259 | 5.0 | 13.0 | 0.00 | 0.00 | 0.00 | 34 | 1013.6 |
| 20260504182406 | 66 | 321 | 3.0 | 10.0 | 0.00 | 0.00 | 0.00 | 35 | 1015.0 |
| 20260504182004 | 65 | 236 | 2.0 | 10.0 | 0.00 | 0.00 | 0.00 | 36 | 1013.5 |
| 20260504181634 | 65 | 279 | 3.0 | 10.0 | 0.00 | 0.00 | 0.00 | 35 | 1015.0 |
| 20260504181523 | 65 | 241 | 3.0 | 9.0 | 0.00 | 0.00 | 0.00 | 34 | 1013.4 |
| 20260504181129 | 66 | 289 | 2.0 | 9.0 | 0.00 | 0.00 | 0.00 | 35 | 1014.9 |
| 20260504181002 | 65 | 265 | 2.0 | 9.0 | 0.00 | 0.00 | 0.00 | 36 | 1013.5 |
| 20260504180622 | 66 | 265 | 2.0 | 8.0 | 0.00 | 0.00 | 0.00 | 35 | 1014.9 |
| 20260504180504 | 65 | 284 | 2.0 | 8.0 | 0.00 | 0.00 | 0.00 | 35 | 1013.4 |
| 20260504180116 | 65 | 350 | 2.0 | 8.0 | 0.00 | 0.00 | 0.00 | 37 | 1014.9 |
| 20260504180005 | 65 | 316 | 2.0 | 8.0 | 0.00 | 0.00 | 0.00 | 36 | 1013.5 |
| 20260504175610 | 65 | 255 | 2.0 | 8.0 | 0.00 | 0.00 | 0.00 | 36 | 1014.8 |
| 20260504175504 | 65 | 265 | 2.0 | 8.0 | 0.00 | 0.00 | 0.00 | 35 | 1013.4 |
| 20260504175104 | 65 | 208 | 3.0 | 10.0 | 0.00 | 0.00 | 0.00 | 37 | 1014.8 |
| 20260504175003 | 64 | 312 | 3.0 | 10.0 | 0.00 | 0.00 | 0.00 | 36 | 1013.5 |
| 20260504174558 | 65 | 277 | 3.0 | 10.0 | 0.00 | 0.00 | 0.00 | 36 | 1014.8 |
| 20260504174504 | 64 | 239 | 3.0 | 10.0 | 0.00 | 0.00 | 0.00 | 35 | 1013.4 |
| 20260504174052 | 65 | 273 | 2.0 | 7.0 | 0.00 | 0.00 | 0.00 | 36 | 1014.8 |
| 20260504174003 | 65 | 239 | 2.0 | 7.0 | 0.00 | 0.00 | 0.00 | 35 | 1013.5 |
| 20260504173809 | 65 | 314 | 2.0 | 7.0 | 0.00 | 0.00 | 0.00 | 38 | 1014.8 |
| 20260504173504 | 65 | 203 | 0.0 | 7.0 | 0.00 | 0.00 | 0.00 | 37 | 1013.5 |
| 20260504173040 | 65 | 300 | 3.0 | 8.0 | 0.00 | 0.00 | 0.00 | 37 | 1015.2 |
| 20260504173004 | 64 | 252 | 1.0 | 9.0 | 0.00 | 0.00 | 0.00 | 36 | 1013.5 |
| 20260504172534 | 64 | 272 | 3.0 | 9.0 | 0.00 | 0.00 | 0.00 | 38 | 1015.1 |
| 20260504172504 | 63 | 257 | 2.0 | 9.0 | 0.00 | 0.00 | 0.00 | 37 | 1013.6 |
| 20260504172028 | 64 | 304 | 3.0 | 11.0 | 0.00 | 0.00 | 0.00 | 37 | 1015.2 |
| 20260504172005 | 63 | 263 | 1.0 | 11.0 | 0.00 | 0.00 | 0.00 | 37 | 1013.6 |
| 20260504171522 | 63 | 262 | 4.0 | 11.0 | 0.00 | 0.00 | 0.00 | 38 | 1015.1 |
| 20260504171509 | 63 | 262 | 2.0 | 11.0 | 0.00 | 0.00 | 0.00 | 37 | 1013.5 |
| 20260504171016 | 63 | 276 | 4.0 | 12.0 | 0.00 | 0.00 | 0.00 | 38 | 1015.1 |
| 20260504171006 | 63 | 282 | 4.0 | 12.0 | 0.00 | 0.00 | 0.00 | 37 | 1013.6 |
| 20260504170510 | 64 | 250 | 4.0 | 12.0 | 0.00 | 0.00 | 0.00 | 37 | 1015.1 |
| 20260504170505 | 63 | 263 | 2.0 | 12.0 | 0.00 | 0.00 | 0.00 | 36 | 1013.6 |
| 20260504170227 | 63 | 277 | 3.0 | 11.0 | 0.00 | 0.00 | 0.00 | 37 | 1015.1 |